K5GHS-1 Weather Reports


Display with metric or nautical units.
time (UTC)temp
F
wind
direction
speed
MPH
gust
MPH
rain 1hr
in
rain 24hr
in
rain mn
in
humidity
%
barometer
mb
20260901063934 85 77 0.0 1.0 0.00 0.00 0.00 56 1014.5
20260901063430 85 75 1.0 1.0 0.00 0.00 0.00 56 1014.6
20260901062926 85 76 0.0 1.0 0.00 0.00 0.00 56 1014.4
20260901062421 85 75 0.0 1.0 0.00 0.00 0.00 56 1014.3
20260901061917 85 76 0.0 2.0 0.00 0.00 0.00 56 1014.5
20260901061413 85 91 0.0 1.0 0.00 0.00 0.00 55 1014.4
20260901060908 85 75 0.0 1.0 0.00 0.00 0.00 55 1014.4
20260901060403 86 75 0.0 1.0 0.00 0.00 0.00 55 1014.4
20260901055902 86 79 1.0 2.0 0.00 0.00 0.00 55 1014.1
20260901055359 86 81 1.0 2.0 0.00 0.00 0.00 56 1014.2
20260901054855 86 79 1.0 5.0 0.00 0.00 0.00 56 1013.9
20260901054353 86 78 1.0 3.0 0.00 0.00 0.00 56 1014.0
20260901053848 86 75 1.0 3.0 0.00 0.00 0.00 56 1014.0
20260901053343 86 69 0.0 2.0 0.00 0.00 0.00 57 1014.2
20260901052839 86 81 0.0 1.0 0.00 0.00 0.00 57 1014.0
20260901052334 86 102 0.0 1.0 0.00 0.00 0.00 57 1014.1
20260901051833 86 77 0.0 1.0 0.00 0.00 0.00 57 1013.8
20260901051328 86 73 1.0 2.0 0.00 0.00 0.00 57 1013.9
20260901050823 86 84 0.0 2.0 0.00 0.00 0.00 57 1013.7
20260901050318 86 77 0.0 1.0 0.00 0.00 0.00 56 1013.7
20260901045808 86 77 0.0 1.0 0.00 0.00 0.00 56 1013.7
20260901045308 86 75 0.0 1.0 0.00 0.00 0.00 56 1013.7
20260901044803 87 80 0.0 0.0 0.00 0.00 0.00 55 1013.7
20260901044259 87 80 0.0 1.0 0.00 0.00 0.00 55 1013.5
20260901043754 87 74 0.0 0.0 0.00 0.00 0.00 55 1013.4
20260901043250 87 72 0.0 1.0 0.00 0.00 0.00 55 1013.6
20260901042750 87 77 0.0 1.0 0.00 0.00 0.00 55 1013.5
20260901042245 87 77 0.0 1.0 0.00 0.00 0.00 54 1013.5
20260901041740 88 78 0.0 1.0 0.00 0.00 0.00 53 1013.6
20260901041241 88 77 0.0 2.0 0.00 0.00 0.00 52 1013.5
20260901040735 88 72 0.0 1.0 0.00 0.00 0.00 52 1013.5
20260901040234 88 76 0.0 0.0 0.00 0.00 0.00 52 1013.5
20260901035733 88 77 0.0 0.0 0.00 0.00 0.00 51 1013.5
20260901035232 88 79 0.0 1.0 0.00 0.00 0.00 51 1013.3
20260901034731 88 74 0.0 1.0 0.00 0.00 0.00 51 1013.6
20260901034227 88 72 0.0 0.0 0.00 0.00 0.00 51 1013.5
20260901033726 89 76 0.0 1.0 0.00 0.00 0.00 50 1013.4
20260901033225 89 76 0.0 1.0 0.00 0.00 0.00 50 1013.6
20260901032724 89 80 0.0 0.0 0.00 0.00 0.00 50 1013.3
20260901032219 89 76 0.0 0.0 0.00 0.00 0.00 50 1013.5
20260901031714 89 77 0.0 0.0 0.00 0.00 0.00 49 1013.4
20260901031210 90 81 0.0 0.0 0.00 0.00 0.00 49 1013.6
20260901030705 90 77 0.0 1.0 0.00 0.00 0.00 48 1013.3
20260901030204 90 67 1.0 1.0 0.00 0.00 0.00 49 1013.3
20260901025659 90 77 1.0 2.0 0.00 0.00 0.00 49 1013.4
20260901025154 90 77 0.0 2.0 0.00 0.00 0.00 48 1013.2
20260901024654 90 89 2.0 2.0 0.00 0.00 0.00 46 1013.2
20260901024147 90 71 0.0 1.0 0.00 0.00 0.00 46 1013.1
20260901023646 90 73 0.0 0.0 0.00 0.00 0.00 46 1013.1
20260901023141 90 74 0.0 0.0 0.00 0.00 0.00 46 1012.8
20260901022636 90 73 0.0 0.0 0.00 0.00 0.00 46 1012.8
20260901022132 91 77 0.0 0.0 0.00 0.00 0.00 46 1012.7
20260901021627 91 77 0.0 1.0 0.00 0.00 0.00 45 1012.5
20260901021123 91 37 1.0 3.0 0.00 0.00 0.00 45 1012.5
20260901020618 91 98 0.0 1.0 0.00 0.00 0.00 45 1012.6
20260901020113 92 82 0.0 1.0 0.00 0.00 0.00 45 1012.4
20260901015608 92 54 1.0 2.0 0.00 0.00 0.00 44 1012.6
20260901015108 92 80 0.0 1.0 0.00 0.00 0.00 44 1012.5
20260901014603 92 75 0.0 1.0 0.00 0.00 0.00 43 1012.4
20260901014059 93 71 0.0 1.0 0.00 0.00 0.00 43 1012.5
20260901013554 93 73 0.0 0.0 0.00 0.00 0.00 43 1012.3
20260901013050 93 79 0.0 1.0 0.00 0.00 0.00 42 1012.4
20260901012550 93 77 0.0 1.0 0.00 0.00 0.00 42 1012.2
20260901012045 94 84 0.0 2.0 0.00 0.00 0.00 42 1012.3
20260901011542 94 86 1.0 2.0 0.00 0.00 0.00 42 1012.2
20260901011039 94 66 1.0 2.0 0.00 0.00 0.00 41 1012.2
20260901010535 94 84 0.0 1.0 0.00 0.00 0.00 41 1012.1
20260901010034 94 82 1.0 2.0 0.00 0.00 0.00 40 1012.3
20260901005529 95 88 1.0 2.0 0.00 0.00 0.00 40 1012.1
20260901005024 95 95 1.0 2.0 0.00 0.00 0.00 40 1012.2
20260901004524 95 58 1.0 3.0 0.00 0.00 0.00 39 1012.0
20260901004019 95 70 2.0 5.0 0.00 0.00 0.00 39 1012.2
20260901003514 96 76 0.0 1.0 0.00 0.00 0.00 38 1012.0
20260901003011 96 73 0.0 2.0 0.00 0.00 0.00 38 1012.1
20260901002506 96 60 1.0 2.0 0.00 0.00 0.00 38 1012.3
20260901002001 97 77 1.0 2.0 0.00 0.00 0.00 37 1012.1
20260901001455 97 74 0.0 2.0 0.00 0.00 0.00 36 1012.2
20260901000951 97 93 4.0 6.0 0.00 0.00 0.00 36 1012.0
20260901000445 97 82 1.0 2.0 0.00 0.00 0.00 36 1012.1
20260831235944 98 77 0.0 5.0 0.00 0.00 0.00 36 1011.9
20260831235440 98 74 1.0 3.0 0.00 0.00 0.00 36 1011.9
20260831234935 98 74 0.0 2.0 0.00 0.00 0.00 36 1012.2
20260831234430 98 101 1.0 2.0 0.00 0.00 0.00 36 1012.1
20260831233925 98 69 2.0 3.0 0.00 0.00 0.00 36 1012.2
20260831233420 98 49 4.0 5.0 0.00 0.00 0.00 35 1012.0
20260831232916 98 73 1.0 3.0 0.00 0.00 0.00 36 1012.2
20260831232412 99 97 0.0 1.0 0.00 0.00 0.00 36 1012.1
20260831231907 99 58 2.0 5.0 0.00 0.00 0.00 36 1012.0
20260831231403 99 62 1.0 3.0 0.00 0.00 0.00 35 1012.0
20260831230859 100 75 0.0 3.0 0.00 0.00 0.00 35 1012.2
20260831230353 100 87 2.0 6.0 0.00 0.00 0.00 34 1012.2
20260831225848 101 50 1.0 3.0 0.00 0.00 0.00 33 1012.2
20260831225343 102 87 1.0 3.0 0.00 0.00 0.00 32 1011.9
20260831224838 102 86 0.0 3.0 0.00 0.00 0.00 32 1012.1
20260831224333 101 74 0.0 3.0 0.00 0.00 0.00 32 1012.0
20260831223828 102 85 0.0 2.0 0.00 0.00 0.00 32 1012.2
20260831223324 102 80 0.0 1.0 0.00 0.00 0.00 32 1012.2
20260831222821 101 97 1.0 5.0 0.00 0.00 0.00 32 1012.4
20260831222316 102 77 1.0 2.0 0.00 0.00 0.00 31 1012.2
20260831221811 101 133 2.0 3.0 0.00 0.00 0.00 32 1012.3
20260831221307 101 97 3.0 5.0 0.00 0.00 0.00 31 1012.3
20260831220806 102 89 1.0 1.0 0.00 0.00 0.00 31 1012.5
20260831220301 103 104 1.0 1.0 0.00 0.00 0.00 30 1012.3
20260831215756 101 73 1.0 5.0 0.00 0.00 0.00 31 1012.7
20260831215252 102 116 1.0 2.0 0.00 0.00 0.00 31 1012.6
20260831214749 101 69 4.0 6.0 0.00 0.00 0.00 31 1012.5
20260831214246 100 68 1.0 5.0 0.00 0.00 0.00 32 1012.6
20260831213741 101 82 0.0 2.0 0.00 0.00 0.00 32 1012.7
20260831213237 101 87 0.0 5.0 0.00 0.00 0.00 32 1012.6
20260831212732 101 119 3.0 5.0 0.00 0.00 0.00 32 1012.7
20260831212229 102 102 2.0 5.0 0.00 0.00 0.00 31 1012.8
20260831211727 102 52 2.0 3.0 0.00 0.00 0.00 29 1012.8
20260831211222 103 116 1.0 1.0 0.00 0.00 0.00 29 1012.8
20260831210717 101 69 0.0 1.0 0.00 0.00 0.00 30 1013.3
20260831210213 101 77 1.0 3.0 0.00 0.00 0.00 30 1013.2
20260831205712 104 81 1.0 3.0 0.00 0.00 0.00 29 1013.5
20260831205209 103 88 1.0 1.0 0.00 0.00 0.00 29 1013.3
20260831204703 104 77 0.0 2.0 0.00 0.00 0.00 29 1013.6
20260831204203 102 72 1.0 3.0 0.00 0.00 0.00 29 1013.6
20260831203702 102 76 1.0 3.0 0.00 0.00 0.00 30 1013.5
20260831203156 102 76 1.0 5.0 0.00 0.00 0.00 29 1013.7
20260831202654 102 118 1.0 5.0 0.00 0.00 0.00 29 1013.5
20260831202150 102 118 3.0 5.0 0.00 0.00 0.00 29 1013.7
20260831201649 101 76 0.0 3.0 0.00 0.00 0.00 31 1013.6
20260831201148 100 76 0.0 8.0 0.00 0.00 0.00 30 1013.9
20260831200644 100 117 2.0 5.0 0.00 0.00 0.00 29 1013.8
20260831200139 100 151 3.0 5.0 0.00 0.00 0.00 30 1014.0
20260831195635 100 96 0.0 1.0 0.00 0.00 0.00 29 1014.0
20260831195130 100 85 0.0 2.0 0.00 0.00 0.00 30 1014.2
20260831194625 100 112 3.0 6.0 0.00 0.00 0.00 30 1014.3
20260831194120 99 104 1.0 3.0 0.00 0.00 0.00 32 1014.5
20260831193615 98 70 3.0 5.0 0.00 0.00 0.00 32 1014.4
20260831193115 98 73 0.0 5.0 0.00 0.00 0.00 35 1014.4
20260831192605 98 82 2.0 6.0 0.00 0.00 0.00 34 1014.5
20260831192100 99 111 1.0 3.0 0.00 0.00 0.00 33 1014.5
20260831191556 101 353 3.0 3.0 0.00 0.00 0.00 31 1014.4
20260831191052 100 90 0.0 2.0 0.00 0.00 0.00 33 1014.7
20260831190547 100 54 1.0 6.0 0.00 0.00 0.00 33 1014.8
20260831190045 99 85 1.0 2.0 0.00 0.00 0.00 35 1014.5
20260831185541 98 65 2.0 3.0 0.00 0.00 0.00 36 1014.6
20260831185036 99 83 2.0 5.0 0.00 0.00 0.00 35 1014.7
20260831184530 99 138 3.0 5.0 0.00 0.00 0.00 35 1014.5
20260831184026 100 124 6.0 8.0 0.00 0.00 0.00 35 1014.6
20260831183525 100 83 1.0 2.0 0.00 0.00 0.00 34 1015.0
20260831183024 99 82 1.0 7.0 0.00 0.00 0.00 35 1014.8
20260831182519 99 98 1.0 3.0 0.00 0.00 0.00 37 1015.0
20260831182015 99 125 2.0 6.0 0.00 0.00 0.00 36 1015.0
20260831181510 99 81 1.0 5.0 0.00 0.00 0.00 37 1015.0
20260831181005 99 132 0.0 2.0 0.00 0.00 0.00 37 1015.0
20260831180505 99 66 0.0 3.0 0.00 0.00 0.00 39 1015.4
20260831180005 98 74 1.0 2.0 0.00 0.00 0.00 38 1015.5
20260831175500 98 68 1.0 2.0 0.00 0.00 0.00 40 1015.4
20260831174956 99 81 2.0 5.0 0.00 0.00 0.00 39 1015.6
20260831174452 98 51 1.0 2.0 0.00 0.00 0.00 41 1015.7
20260831173950 98 20 1.0 2.0 0.00 0.00 0.00 41 1015.8
20260831173449 97 72 1.0 5.0 0.00 0.00 0.00 42 1015.7
20260831172946 97 82 1.0 3.0 0.00 0.00 0.00 42 1015.7
20260831172441 97 78 1.0 2.0 0.00 0.00 0.00 41 1015.7
20260831171936 97 87 0.0 2.0 0.00 0.00 0.00 42 1015.9
20260831171432 96 91 1.0 2.0 0.00 0.00 0.00 42 1016.1
20260831170928 97 97 1.0 3.0 0.00 0.00 0.00 42 1016.1
20260831170424 97 68 0.0 2.0 0.00 0.00 0.00 41 1015.9
20260831165921 97 104 0.0 3.0 0.00 0.00 0.00 42 1016.1
20260831165417 97 110 3.0 3.0 0.00 0.00 0.00 41 1016.1
20260831164913 97 110 1.0 3.0 0.00 0.00 0.00 42 1016.2
20260831164409 98 88 0.0 0.0 0.00 0.00 0.00 40 1016.1
20260831163904 97 106 0.0 1.0 0.00 0.00 0.00 41 1015.9
20260831163359 96 72 0.0 1.0 0.00 0.00 0.00 42 1016.1
20260831162858 95 74 0.0 2.0 0.00 0.00 0.00 43 1016.2
20260831162353 95 72 2.0 3.0 0.00 0.00 0.00 43 1016.5
20260831161852 96 80 0.0 2.0 0.00 0.00 0.00 42 1016.1
20260831161349 96 84 1.0 2.0 0.00 0.00 0.00 42 1016.3
20260831160843 96 82 0.0 2.0 0.00 0.00 0.00 42 1016.1
20260831160338 96 105 1.0 2.0 0.00 0.00 0.00 42 1016.3
20260831155833 95 99 1.0 2.0 0.00 0.00 0.00 42 1016.4
20260831155332 95 74 0.0 2.0 0.00 0.00 0.00 42 1016.3
20260831154828 96 127 2.0 2.0 0.00 0.00 0.00 41 1016.2
20260831154325 95 70 0.0 1.0 0.00 0.00 0.00 42 1016.1
20260831153823 94 251 1.0 2.0 0.00 0.00 0.00 43 1016.1
20260831153319 94 115 2.0 2.0 0.00 0.00 0.00 43 1016.1
20260831152815 94 84 0.0 3.0 0.00 0.00 0.00 44 1016.0
20260831152311 94 82 1.0 1.0 0.00 0.00 0.00 44 1016.2
20260831151806 93 104 0.0 1.0 0.00 0.00 0.00 46 1016.1
20260831151305 93 79 0.0 1.0 0.00 0.00 0.00 46 1016.0
20260831150800 92 118 0.0 1.0 0.00 0.00 0.00 48 1015.9
20260831150255 91 74 1.0 3.0 0.00 0.00 0.00 48 1016.1
20260831145754 92 122 1.0 2.0 0.00 0.00 0.00 48 1015.9
20260831145251 92 138 0.0 1.0 0.00 0.00 0.00 48 1016.2
20260831144746 91 85 0.0 3.0 0.00 0.00 0.00 49 1016.1
20260831144243 91 121 1.0 2.0 0.00 0.00 0.00 49 1016.0
20260831143742 91 102 1.0 2.0 0.00 0.00 0.00 51 1015.9
20260831143238 90 65 0.0 2.0 0.00 0.00 0.00 53 1016.0
20260831142733 89 78 0.0 2.0 0.00 0.00 0.00 55 1015.8
20260831142228 88 77 1.0 1.0 0.00 0.00 0.00 56 1015.8
20260831141727 88 174 2.0 3.0 0.00 0.00 0.00 56 1016.0
20260831141222 88 89 0.0 2.0 0.00 0.00 0.00 57 1016.0
20260831140722 88 91 0.0 0.0 0.00 0.00 0.00 59 1015.7
20260831140217 87 77 0.0 1.0 0.00 0.00 0.00 60 1015.8
20260831135715 87 70 0.0 2.0 0.00 0.00 0.00 61 1015.8
20260831135211 87 82 0.0 0.0 0.00 0.00 0.00 61 1015.9
20260831134706 86 83 0.0 0.0 0.00 0.00 0.00 62 1015.7
20260831134202 85 70 0.0 1.0 0.00 0.00 0.00 64 1015.5
20260831133701 84 73 0.0 1.0 0.00 0.00 0.00 66 1015.7
20260831133156 83 77 1.0 1.0 0.00 0.00 0.00 68 1015.6
20260831132651 83 87 0.0 1.0 0.00 0.00 0.00 68 1015.4
20260831132151 82 95 1.0 3.0 0.00 0.00 0.00 69 1015.5
20260831131646 82 74 0.0 0.0 0.00 0.00 0.00 70 1015.6
20260831131142 82 74 0.0 1.0 0.00 0.00 0.00 70 1015.4
20260831130636 81 78 0.0 1.0 0.00 0.00 0.00 71 1015.2
20260831130127 81 76 0.0 1.0 0.00 0.00 0.00 72 1015.2
20260831125625 81 79 0.0 1.0 0.00 0.00 0.00 72 1015.1
20260831125121 80 77 0.0 1.0 0.00 0.00 0.00 72 1014.9
20260831124617 80 79 0.0 1.0 0.00 0.00 0.00 72 1015.1
20260831124113 80 85 0.0 0.0 0.00 0.00 0.00 72 1014.8
20260831123612 80 73 0.0 1.0 0.00 0.00 0.00 72 1014.8
20260831123106 80 76 0.0 1.0 0.00 0.00 0.00 72 1014.9
20260831122606 80 80 0.0 1.0 0.00 0.00 0.00 72 1014.7
20260831122102 80 84 0.0 0.0 0.00 0.00 0.00 72 1014.5
20260831121601 80 76 0.0 1.0 0.00 0.00 0.00 72 1014.7
20260831121058 80 70 0.0 0.0 0.00 0.00 0.00 71 1014.6
20260831120557 80 76 0.0 0.0 0.00 0.00 0.00 72 1014.2
20260831120053 81 72 0.0 0.0 0.00 0.00 0.00 71 1014.1
20260831115548 81 74 0.0 0.0 0.00 0.00 0.00 72 1014.3
20260831115043 81 73 0.0 0.0 0.00 0.00 0.00 73 1014.4
20260831114542 81 72 0.0 0.0 0.00 0.00 0.00 72 1014.2
20260831114037 81 72 0.0 0.0 0.00 0.00 0.00 72 1014.2
20260831113537 81 70 0.0 0.0 0.00 0.00 0.00 72 1014.0
20260831113033 81 69 0.0 0.0 0.00 0.00 0.00 72 1014.0
20260831112532 81 81 0.0 1.0 0.00 0.00 0.00 71 1013.9
20260831112027 82 73 0.0 0.0 0.00 0.00 0.00 71 1013.9
20260831111523 82 74 0.0 1.0 0.00 0.00 0.00 71 1014.0
20260831111018 82 69 0.0 0.0 0.00 0.00 0.00 70 1013.7
20260831110513 82 60 0.0 0.0 0.00 0.00 0.00 71 1013.8
20260831110008 82 74 0.0 0.0 0.00 0.00 0.00 70 1013.8
20260831105502 82 73 0.0 0.0 0.00 0.00 0.00 70 1013.5
20260831104957 82 70 0.0 0.0 0.00 0.00 0.00 69 1013.8
20260831104454 83 69 0.0 0.0 0.00 0.00 0.00 69 1013.7
20260831103949 83 68 1.0 1.0 0.00 0.00 0.00 68 1013.7
20260831103444 83 74 0.0 0.0 0.00 0.00 0.00 68 1014.0
20260831102940 83 76 0.0 0.0 0.00 0.00 0.00 67 1013.7
20260831102440 84 94 0.0 2.0 0.00 0.00 0.00 67 1013.6
20260831101934 84 89 0.0 1.0 0.00 0.00 0.00 66 1013.8
20260831101430 84 76 1.0 2.0 0.00 0.00 0.00 66 1013.6
20260831100926 84 101 0.0 2.0 0.00 0.00 0.00 65 1013.9
20260831100421 84 72 0.0 1.0 0.00 0.00 0.00 65 1013.6
20260831095916 84 103 0.0 3.0 0.00 0.00 0.00 65 1013.8
20260831095415 84 72 1.0 1.0 0.00 0.00 0.00 64 1013.5
20260831094910 84 78 0.0 1.0 0.00 0.00 0.00 64 1013.8
20260831094407 84 72 0.0 1.0 0.00 0.00 0.00 63 1013.7
20260831093902 84 75 0.0 0.0 0.00 0.00 0.00 62 1013.6
20260831093357 84 70 0.0 0.0 0.00 0.00 0.00 62 1013.7
20260831092854 84 76 0.0 1.0 0.00 0.00 0.00 62 1013.4
20260831092349 84 75 0.0 1.0 0.00 0.00 0.00 61 1013.6
20260831091844 84 76 0.0 1.0 0.00 0.00 0.00 61 1013.4
20260831091339 84 103 1.0 2.0 0.00 0.00 0.00 60 1013.3
20260831090834 84 67 0.0 0.0 0.00 0.00 0.00 60 1013.2
20260831090331 84 72 0.0 2.0 0.00 0.00 0.00 59 1013.1
20260831085827 84 75 0.0 1.0 0.00 0.00 0.00 58 1013.5
20260831085321 84 74 0.0 1.0 0.00 0.00 0.00 58 1013.3
20260831084816 85 78 0.0 1.0 0.00 0.00 0.00 57 1013.2
20260831084312 85 136 1.0 1.0 0.00 0.00 0.00 56 1013.3
20260831083808 85 80 0.0 1.0 0.00 0.00 0.00 56 1013.4
20260831083303 84 78 0.0 1.0 0.00 0.00 0.00 56 1013.0
20260831082802 85 83 0.0 1.0 0.00 0.00 0.00 56 1013.2
20260831082257 85 75 0.0 0.0 0.00 0.00 0.00 56 1013.1
20260831081752 85 74 0.0 3.0 0.00 0.00 0.00 55 1013.1
20260831081248 85 76 0.0 2.0 0.00 0.00 0.00 55 1013.2
20260831080743 85 73 0.0 1.0 0.00 0.00 0.00 55 1013.3
20260831080238 85 73 0.0 1.0 0.00 0.00 0.00 55 1012.8
20260831075734 84 76 0.0 1.0 0.00 0.00 0.00 56 1013.0
20260831075229 83 99 1.0 2.0 0.00 0.00 0.00 58 1013.0
20260831074728 83 76 0.0 0.0 0.00 0.00 0.00 59 1012.7
20260831074222 83 75 0.0 0.0 0.00 0.00 0.00 59 1012.7
20260831073718 83 70 0.0 0.0 0.00 0.00 0.00 58 1012.7
20260831073217 84 70 0.0 0.0 0.00 0.00 0.00 58 1013.0
20260831072712 84 72 0.0 0.0 0.00 0.00 0.00 58 1012.8
20260831072209 84 71 0.0 0.0 0.00 0.00 0.00 58 1013.1
20260831071708 84 71 0.0 0.0 0.00 0.00 0.00 57 1012.8
20260831071202 84 71 0.0 0.0 0.00 0.00 0.00 57 1012.7
20260831070657 84 71 0.0 0.0 0.00 0.00 0.00 57 1013.0
20260831070151 84 71 0.0 0.0 0.00 0.00 0.00 57 1013.1
20260831065650 84 72 0.0 0.0 0.00 0.00 0.00 57 1013.0
20260831065148 84 71 0.0 0.0 0.00 0.00 0.00 56 1013.0
20260831064643 85 71 0.0 0.0 0.00 0.00 0.00 56 1013.0